Location: Coors Field
(39.7564°N, 104.9943°W)
Time: 05:56:54
(UTC-06:00)

ISS - Visible Passes

Search period start: 28 September 2016 00:00
Search period end: 08 October 2016 00:00
Orbit: 400 x 410 km, 51.6° (Epoch: 28 September)

Date Brightness Start Highest point End Pass type
(mag) Time Alt. Az. Time Alt. Az. Time Alt. Az.
28 Sep -3.5 20:13:27 10° SW 20:16:40 66° SE 20:16:49 65° ESE visible
29 Sep -2.5 19:21:46 10° SSW 19:24:41 32° SE 19:27:26 11° ENE visible
29 Sep -0.9 20:58:17 10° W 21:00:08 24° WNW 21:00:08 24° WNW visible
30 Sep -2.5 20:05:50 10° WSW 20:08:59 49° NNW 20:10:33 25° NNE visible
01 Oct -3.4 19:13:38 10° SW 19:16:51 87° SSE 19:20:07 10° NE visible
01 Oct -0.7 20:51:25 10° WNW 20:53:29 17° NNW 20:53:29 17° NNW visible
02 Oct -1.3 19:58:39 10° W 20:01:24 25° NNW 20:03:37 13° NNE visible
03 Oct -2.1 19:06:05 10° WSW 19:09:09 39° NNW 19:12:14 10° NE visible
03 Oct -0.4 20:44:49 10° NW 20:46:18 13° NNW 20:46:18 13° NNW visible
04 Oct -0.7 19:51:49 10° WNW 19:53:54 16° NNW 19:56:00 10° NNE visible
05 Oct -1.2 18:58:56 10° WNW 19:01:31 21° NNW 19:04:07 10° NNE visible
05 Oct -0.3 20:38:15 10° NNW 20:38:47 10° N 20:38:47 10° N visible
06 Oct -0.6 19:45:11 10° NNW 19:46:28 12° N 19:47:45 10° NNE visible
07 Oct -0.4 20:30:49 10° N 20:31:04 10° N 20:31:04 10° N visible
